Weather reports worldwide

Advertisment
Solenzara, France (7765): temperature & dewpoint: 07.07.2020 06:00:00 - 13.07.2020 06:00:00 (CEST)Solenzara, France (7765): temperature 5cm: 07.07.2020 06:00:00 - 13.07.2020 06:00:00 (CEST)Solenzara, France (7765): temperature -20cm: 07.07.2020 06:00:00 - 13.07.2020 06:00:00 (CEST)Solenzara, France (7765): wind speed & gusts: 07.07.2020 06:00:00 - 13.07.2020 06:00:00 (CEST)Solenzara, France (7765): wind direction: 07.07.2020 06:00:00 - 13.07.2020 06:00:00 (CEST)Solenzara, France (7765): reduced air pressure: 07.07.2020 06:00:00 - 13.07.2020 06:00:00 (CEST)Solenzara, France (7765): visibility: 07.07.2020 06:00:00 - 13.07.2020 06:00:00 (CEST)Solenzara, France (7765): sunshine duration: 07.07.2020 06:00:00 - 13.07.2020 06:00:00 (CEST)Solenzara, France (7765): precipitation: 07.07.2020 06:00:00 - 13.07.2020 06:00:00 (CEST)
Date & Time tt [°C] td [°C] tt 5cm [°C] tt -20cm [°C] ff [km/h] ff [kn] fx [km/h] fx [kn] dd ppp [hPa] vv [km] sd [min] rr [mm]
13.07.2020 06:00:00 24,7 15,9 23,6 28,1 9 5 19 10 NNW 1017,0 43 0 0,0
13.07.2020 05:00:00 25,1 16,5 24,6 28,2 13 7 22 12 N 1016,7 47 0 0,0
13.07.2020 04:00:00 25,5 16,9 24,8 28,3 13 7 23 13 NNW 1016,9 50 0 0,0
13.07.2020 03:00:00 25,6 16,7 25,2 28,3 16 9 29 15 N 1016,8 48 0 0,0
13.07.2020 02:00:00 26,5 16,4 24,1 28,3 13 7 23 12 N 1016,6 52 0 0,0
13.07.2020 01:00:00 25,7 16,5 23,2 28,4 13 7 20 11 NNW 1016,6 40 0 0,0
13.07.2020 00:00:00 24,9 16,9 24,2 28,4 6 4 23 12 N 1016,7 37 0 0,0
12.07.2020 23:00:00 25,5 17,9 24,8 28,4 10 5 19 10 W 1016,6 35 0 0,0
12.07.2020 22:00:00 25,4 19,5 25,0 28,3 9 5 16 9 W 1016,7 34 0 0,0
12.07.2020 21:00:00 26,4 20,3 25,3 28,3 5 3 11 6 WSW 1016,2 35 0 0,0
12.07.2020 20:00:00 27,3 20,1 27,4 28,2 9 5 13 7 ENE 1016,1 39 0 0,0
12.07.2020 19:00:00 28,7 19,6 29,5 28,1 6 3 14 8 E 1015,7 27 0 0,0
12.07.2020 18:00:00 29,0 20,7 31,6 28,0 7 4 16 9 E 1015,8 30 0 0,0
12.07.2020 17:00:00 28,9 19,5 32,4 27,9 10 5 19 10 ESE 1016,2 18 0 0,0
12.07.2020 16:00:00 29,2 20,4 33,9 27,7 11 6 20 11 ESE 1016,5 21 0 0,0
12.07.2020 15:00:00 29,5 20,6 35,1 27,6 13 7 22 12 E 1016,7 20 0 0,0
12.07.2020 14:00:00 30,2 19,9 35,3 27,6 14 8 23 13 E 1016,7 20 0 0,0
12.07.2020 13:00:00 29,7 20,3 36,8 27,6 15 8 28 15 E 1016,8 21 0 0,0
12.07.2020 12:00:00 29,6 20,5 34,0 27,6 21 12 29 16 E 1016,5 22 0 0,0
12.07.2020 11:00:00 29,1 21,1 33,8 27,6 19 10 26 14 ENE 1016,3 22 0 0,0
12.07.2020 10:00:00 28,3 20,3 30,8 27,6 14 8 23 12 ENE 1016,2 22 0 0,0
12.07.2020 09:00:00 27,4 20,5 28,5 27,7 15 8 23 12 NE 1016,2 20 0 0,0
12.07.2020 08:00:00 26,1 20,4 22,7 27,8 14 8 19 10 N 1016,0 20 0 0,0
12.07.2020 07:00:00 22,4 16,0 19,7 27,9 9 5 14 8 W 1015,6 41 0 0,0
12.07.2020 06:00:00 20,8 16,0 19,7 28,0 6 4 14 8 NW 1015,3 35 0 0,0
12.07.2020 05:00:00 21,8 15,2 21,1 28,1 9 5 15 8 W 1014,7 39 0 0,0
12.07.2020 04:00:00 22,1 15,7 21,1 28,2 10 5 16 8 W 1014,5 39 0 0,0
12.07.2020 03:00:00 22,2 16,9 20,4 28,2 9 5 14 7 W 1014,8 34 0 0,0
12.07.2020 02:00:00 22,4 18,0 20,3 28,3 10 5 14 7 W 1015,0 33 0 0,0
12.07.2020 01:00:00 23,2 18,3 20,9 28,3 8 4 11 6 W 1015,2 33 0 0,0
12.07.2020 00:00:00 23,8 19,1 21,8 28,3 5 3 14 8 W 1015,3 34 0 0,0
11.07.2020 23:00:00 24,1 19,8 22,4 28,3 6 4 12 6 W 1014,9 32 0 0,0
11.07.2020 22:00:00 25,0 20,3 22,8 28,3 3 2 5 3 W 1014,6 33 0 0,0
11.07.2020 21:00:00 25,4 21,3 24,4 28,2 2 1 7 4 ENE 1013,9 36 0 0,0
11.07.2020 20:00:00 26,9 21,0 27,0 28,1 4 2 11 6 E 1013,6 37 0 0,0
11.07.2020 19:00:00 28,0 20,8 29,1 28,0 5 3 16 9 ESE 1013,5 31 0 0,0
11.07.2020 18:00:00 28,5 21,3 31,2 27,9 8 5 18 10 ESE 1013,8 20 0 0,0
11.07.2020 17:00:00 29,3 21,5 32,8 27,8 11 6 19 10 ESE 1014,2 29 0 0,0
11.07.2020 16:00:00 29,7 21,9 34,0 27,7 10 5 20 11 ESE 1014,4 29 0 0,0
11.07.2020 15:00:00 29,3 21,5 34,7 27,6 12 7 22 12 E 1014,4 31 0 0,0
11.07.2020 14:00:00 29,4 21,9 36,0 27,5 13 7 21 12 E 1014,6 32 0 0,0
11.07.2020 13:00:00 28,8 21,1 36,1 27,5 11 6 20 11 E 1014,8 20 0 0,0
11.07.2020 12:00:00 28,7 21,2 35,2 27,4 13 7 21 12 ESE 1014,8 38 0 0,0
11.07.2020 11:00:00 27,9 20,7 35,2 27,5 12 7 19 11 SE 1014,5 42 0 0,0
11.07.2020 10:00:00 28,0 20,6 32,0 27,5 9 5 15 8 ESE 1014,6 43 0 0,0
11.07.2020 09:00:00 27,6 19,4 29,0 27,6 7 4 10 5 E 1014,7 31 0 0,0
11.07.2020 08:00:00 25,6 17,3 24,2 27,6 4 2 12 7 WNW 1014,7 37 0 0,0
11.07.2020 07:00:00 23,2 16,3 22,6 27,7 8 5 15 8 W 1014,4 41 0 0,0
11.07.2020 06:00:00 22,7 16,0 21,8 27,8 9 5 16 8 W 1014,5 41 0 0,0
11.07.2020 05:00:00 22,1 16,1 20,9 27,9 10 5 15 8 W 1014,4 40 0 0,0
11.07.2020 04:00:00 22,3 15,9 20,5 28,0 7 4 13 7 W 1014,7 40 0 0,0
11.07.2020 03:00:00 22,9 16,2 20,6 28,0 6 4 14 8 W 1014,8 40 0 0,0
11.07.2020 02:00:00 23,0 16,3 20,1 28,1 8 4 13 7 W 1015,1 42 0 0,0
11.07.2020 01:00:00 23,2 16,3 20,7 28,1 5 3 13 7 W 1015,2 44 0 0,0
11.07.2020 00:00:00 23,3 16,3 21,0 28,1 9 5 15 8 W 1015,0 45 0 0,0
10.07.2020 23:00:00 24,4 17,6 21,8 28,1 8 4 15 8 W 1015,1 41 0 0,0
10.07.2020 22:00:00 24,7 20,2 23,0 28,0 3 2 10 5 W 1014,8 38 0 0,0
10.07.2020 21:00:00 25,1 21,4 25,0 28,0 7 4 16 9 S 1014,6 35 0 0,0
10.07.2020 20:00:00 26,4 20,3 27,0 27,9 11 6 15 8 S 1014,6 43 0 0,0
10.07.2020 19:00:00 27,5 20,8 28,9 27,8 9 5 16 9 SSE 1014,4 38 0 0,0
10.07.2020 18:00:00 28,4 20,2 31,6 27,7 10 5 21 11 SE 1014,6 53 0 0,0
10.07.2020 17:00:00 28,8 19,7 31,3 27,6 11 6 19 10 SE 1015,1 53 0 0,0
10.07.2020 16:00:00 28,6 19,5 33,5 27,5 10 6 20 11 SE 1015,2 34 0 0,0
10.07.2020 15:00:00 29,2 19,2 35,0 27,4 14 8 22 12 ESE 1015,6 37 0 0,0
10.07.2020 14:00:00 29,2 18,9 35,2 27,3 14 8 23 13 ESE 1015,9 40 0 0,0
10.07.2020 13:00:00 28,7 19,1 37,5 27,2 13 7 21 12 SE 1015,9 43 0 0,0
10.07.2020 12:00:00 28,6 18,7 35,1 27,2 13 7 21 12 SE 1016,2 49 0 0,0
10.07.2020 11:00:00 28,0 19,5 35,3 27,3 10 6 16 9 ESE 1016,4 58 0 0,0
10.07.2020 10:00:00 28,2 17,4 34,0 27,3 9 5 13 7 ESE 1016,2 60 0 0,0
10.07.2020 09:00:00 27,2 15,6 29,1 27,4 5 3 10 5 ESE 1016,1 52 0 0,0
10.07.2020 08:00:00 26,3 15,0 22,7 27,5 0 0 6 3 N 1015,9 60 0 0,0
10.07.2020 07:00:00 22,4 14,0 19,4 27,6 6 3 14 8 W 1015,9 46 0 0,0
10.07.2020 06:00:00 21,1 13,8 18,1 27,7 9 5 14 8 W 1015,8 45 0 0,0
10.07.2020 05:00:00 21,3 13,7 18,2 27,8 8 4 13 7 W 1015,7 45 0 0,0
10.07.2020 04:00:00 21,6 14,0 19,2 27,9 7 4 15 8 WNW 1015,9 43 0 0,0
10.07.2020 03:00:00 22,4 14,5 19,8 27,9 8 4 16 9 W 1016,1 42 0 0,0
10.07.2020 02:00:00 22,6 14,7 20,1 28,0 8 4 16 9 W 1016,2 44 0 0,0
10.07.2020 01:00:00 22,5 15,1 20,2 28,0 8 5 14 8 W 1016,6 45 0 0,0
10.07.2020 00:00:00 23,3 15,4 20,8 28,0 8 4 16 9 W 1016,7 43 0 0,0
09.07.2020 23:00:00 23,6 15,4 21,1 28,0 7 4 12 7 W 1016,8 49 0 0,0
09.07.2020 22:00:00 24,1 15,6 21,7 28,0 5 3 11 6 W 1016,7 53 0 0,0
09.07.2020 21:00:00 25,0 18,0 23,7 27,9 4 2 7 4 S 1016,5 57 0 0,0
09.07.2020 20:00:00 26,8 17,6 26,8 27,8 6 3 14 8 SSE 1016,3 51 0 0,0
09.07.2020 19:00:00 27,6 17,5 28,7 27,7 9 5 14 8 SSE 1016,3 50 0 0,0
09.07.2020 18:00:00 28,5 18,0 31,1 27,6 8 5 16 9 ESE 1016,5 48 0 0,0
09.07.2020 17:00:00 28,8 18,6 32,3 27,5 10 6 18 10 ESE 1017,0 35 0 0,0
09.07.2020 16:00:00 29,1 18,5 33,3 27,3 11 6 26 14 ESE 1017,2 35 0 0,0
09.07.2020 15:00:00 28,8 20,0 36,2 27,2 12 7 23 12 SSE 1017,3 35 0 0,0
09.07.2020 14:00:00 29,1 18,5 37,0 27,2 12 6 24 13 SE 1017,4 38 0 0,0
09.07.2020 13:00:00 29,3 18,1 37,7 27,1 13 7 22 12 SE 1017,5 42 0 0,0
09.07.2020 12:00:00 29,2 18,0 35,3 27,1 12 6 20 11 SE 1017,7 46 0 0,0
09.07.2020 11:00:00 28,3 18,7 35,7 27,1 10 5 17 9 SE 1017,5 47 0 0,0
09.07.2020 10:00:00 28,3 16,9 35,0 27,2 8 4 12 7 ESE 1017,3 47 0 0,0
09.07.2020 09:00:00 27,9 14,2 28,8 27,3 5 3 10 6 E 1017,3 51 0 0,0
09.07.2020 08:00:00 25,7 14,8 22,1 27,4 2 1 11 6 W 1017,3 43 0 0,0
09.07.2020 07:00:00 22,2 13,5 17,3 27,4 7 4 11 6 W 1017,1 26 0 0,0
09.07.2020 06:00:00 20,8 13,5 17,4 27,5 5 3 11 6 W 1017,0 52 0 0,0
09.07.2020 05:00:00 21,5 13,4 19,7 27,6 8 5 15 8 W 1016,6 51 0 0,0
09.07.2020 04:00:00 21,6 13,8 20,5 27,7 10 5 17 9 W 1016,4 51 0 0,0
09.07.2020 03:00:00 21,8 13,9 19,6 27,8 9 5 15 8 W 1016,5 51 0 0,0
09.07.2020 02:00:00 22,3 14,4 19,6 27,8 8 4 12 7 W 1016,6 51 0 0,0
09.07.2020 01:00:00 22,9 14,5 19,9 27,9 6 4 14 7 W 1016,7 51 0 0,0
09.07.2020 00:00:00 23,4 14,7 20,1 27,9 6 3 12 7 WNW 1016,5 55 0 0,0
08.07.2020 23:00:00 23,9 14,6 21,2 27,9 6 3 11 6 WNW 1016,5 56 0 0,0
08.07.2020 22:00:00 24,2 14,6 21,4 27,9 4 2 9 5 W 1016,3 58 0 0,0
08.07.2020 21:00:00 24,5 18,0 23,8 27,8 4 2 8 4 S 1015,8 51 0 0,0
08.07.2020 20:00:00 26,6 17,9 26,7 27,7 6 3 9 5 SE 1015,5 46 0 0,0
08.07.2020 19:00:00 27,4 17,8 28,8 27,6 6 4 10 6 ESE 1015,5 49 0 0,0
08.07.2020 18:00:00 27,0 18,0 28,7 27,5 6 4 14 8 E 1015,6 44 0 0,0
08.07.2020 17:00:00 28,3 17,2 32,2 27,4 7 4 16 8 E 1016,1 31 0 0,0
08.07.2020 16:00:00 28,4 17,9 33,5 27,3 8 5 16 8 SE 1016,1 32 0 0,0
08.07.2020 15:00:00 28,6 17,5 35,1 27,3 8 5 19 10 ESE 1016,1 32 0 0,0
08.07.2020 14:00:00 29,1 17,3 35,0 27,2 11 6 24 13 E 1016,3 30 0 0,0
08.07.2020 13:00:00 28,8 16,0 35,1 27,2 16 9 28 15 ENE 1016,4 32 0 0,0
08.07.2020 12:00:00 28,2 16,5 33,2 27,2 17 9 26 14 ENE 1016,2 36 0 0,0
08.07.2020 11:00:00 27,9 18,3 33,1 27,2 17 9 26 14 ENE 1015,9 40 0 0,0
08.07.2020 10:00:00 27,9 18,0 31,2 27,3 17 9 23 13 ENE 1015,6 47 0 0,0
08.07.2020 09:00:00 26,9 17,7 29,0 27,3 11 6 17 9 NNE 1015,3 52 0 0,0
08.07.2020 08:00:00 25,1 17,0 23,5 27,4 5 3 13 7 N 1015,1 55 0 0,0
08.07.2020 07:00:00 22,9 15,7 21,0 27,5 8 4 15 8 WSW 1014,6 60 0 0,0
08.07.2020 06:00:00 21,8 15,6 20,4 27,5 9 5 15 8 W 1014,4 45 0 0,0
08.07.2020 05:00:00 22,1 15,9 20,6 27,6 9 5 14 7 W 1014,3 42 0 0,0
08.07.2020 04:00:00 22,6 15,9 21,1 27,6 9 5 14 8 W 1014,3 45 0 0,0
08.07.2020 03:00:00 23,4 16,0 21,0 27,7 6 3 14 8 WNW 1014,4 49 0 0,0
08.07.2020 02:00:00 23,8 16,3 22,1 27,7 9 5 16 9 W 1014,4 46 0 0,0
08.07.2020 01:00:00 24,0 17,0 22,9 27,7 10 5 17 9 W 1013,9 43 0 0,0
08.07.2020 00:00:00 24,5 17,2 22,3 27,8 9 5 17 9 W 1013,7 42 0 0,0
07.07.2020 23:00:00 25,2 16,6 22,4 27,7 8 4 13 7 NW 1013,4 47 0 0,0
07.07.2020 22:00:00 25,9 17,8 23,1 27,7 6 3 16 8 W 1012,8 48 0 0,0
07.07.2020 21:00:00 26,7 17,2 25,7 27,6 9 5 23 12 N 1012,2 51 0 0,0
07.07.2020 20:00:00 27,6 19,1 27,5 27,6 17 9 26 14 NE 1011,7 37 0 0,0
07.07.2020 19:00:00 28,6 20,6 29,3 27,5 19 10 26 14 NE 1011,5 39 0 0,0
07.07.2020 18:00:00 30,3 19,0 32,1 27,4 17 9 29 16 NE 1011,7 30 0 0,0
07.07.2020 17:00:00 30,6 18,0 32,8 27,3 22 12 34 19 NE 1011,7 21 0 0,0
07.07.2020 16:00:00 31,0 18,0 32,5 27,3 25 13 37 20 NE 1011,6 22 0 0,0
07.07.2020 15:00:00 30,2 18,9 32,7 27,2 26 14 36 20 NE 1011,5 23 0 0,0
07.07.2020 14:00:00 29,7 19,1 32,9 27,1 24 13 39 21 NE 1011,2 26 0 0,0
07.07.2020 13:00:00 29,9 18,3 34,9 27,1 25 13 36 20 NE 1011,0 28 0 0,0
07.07.2020 12:00:00 30,4 18,2 33,1 27,1 24 13 37 20 NE 1010,4 31 0 0,0
07.07.2020 11:00:00 29,5 20,1 33,1 27,1 24 13 31 17 ENE 1009,9 36 0 0,0
07.07.2020 10:00:00 29,9 17,0 34,3 27,1 13 7 21 12 ENE 1009,1 40 0 0,0
07.07.2020 09:00:00 29,6 14,2 30,4 27,2 10 6 16 9 N 1008,5 42 0 0,0
07.07.2020 08:00:00 27,2 15,9 23,2 27,3 11 6 16 9 N 1008,2 43 0 0,0
07.07.2020 07:00:00 22,9 15,2 18,5 27,4 8 5 16 8 W 1007,7 48 0 0,0
07.07.2020 06:00:00 21,3 16,0 18,5 27,5 5 3 13 7 WNW 1007,4 57 0 0,0

tt = temperature
td = dewpoint
tt 5cm = temperature 5cm
tt -20cm = temperature -20cm
ff = wind speed
fx = gusts
dd = wind direction
ppp = reduced air pressure
vv = visibility
sd = sunshine duration
rr = precipitation

Next stations